Location: ??????
(55.7522°N, 37.6156°E)
Time: 17:14:16
(UTC+00:00)

Landsat 4 - Pass Details

Date: 14 June 2025
Orbit: 346 x 352 km, 98.2° (Epoch: 12 July)

Event Time Altitude Azimuth Distance (km) Brightness Sun altitude
Exits shadow 22:03:40 13° 154° (SSE) 1,219 5.1 -10.6°
Maximum altitude 22:06:12 68° 72° (ENE) 413 3.3 -10.6°
Drops below altitude 10° 22:09:11 10° 348° (NNW) 1,406 7.2 -10.5°
Sets 22:11:09 0° 346° (NNW) 2,264 8.3 -10.5°
